Time,TemperatureF,DewpointF,PressureIn,WindDirection,WindDirectionDegrees,WindSpeedMPH,WindSpeedGustMPH,Humidity,HourlyPrecipIn,Conditions,Clouds,dailyrainin,SolarRadiationWatts/m^2,SoftwareType,DateUTC
2013-01-02 00:00:00,9.0,4.0,-100.00,North,355,0.0,1.0,78,0.00,,,-99.99,0.000000,,2013-01-02 07:00:00,
2013-01-02 00:32:00,9.0,4.0,-100.00,North,355,0.0,1.0,78,0.00,,,-99.99,0.000000,,2013-01-02 07:32:00,
2013-01-02 00:42:00,9.0,4.0,-100.00,North,355,0.0,1.0,78,0.00,,,-99.99,0.000000,,2013-01-02 07:42:00,
2013-01-02 00:52:00,9.0,4.0,-100.00,North,355,0.0,1.0,78,0.00,,,-99.99,0.000000,,2013-01-02 07:52:00,
2013-01-02 01:00:00,13.0,6.0,-100.00,NNE,13,1.0,3.0,73,0.00,,,-99.99,0.010000,,2013-01-02 08:00:00,
2013-01-02 01:32:00,13.0,6.0,-100.00,NNE,13,1.0,3.0,73,0.00,,,-99.99,0.010000,,2013-01-02 08:32:00,
2013-01-02 01:42:00,13.0,6.0,-100.00,NNE,13,1.0,3.0,73,0.00,,,-99.99,0.010000,,2013-01-02 08:42:00,
2013-01-02 01:52:00,13.0,6.0,-100.00,NNE,13,1.0,3.0,73,0.00,,,-99.99,0.010000,,2013-01-02 08:52:00,
2013-01-02 02:00:00,14.0,5.0,-100.00,North,9,2.0,4.0,67,0.00,,,-99.99,0.000000,,2013-01-02 09:00:00,
2013-01-02 02:32:00,14.0,5.0,-100.00,North,9,2.0,4.0,67,0.00,,,-99.99,0.000000,,2013-01-02 09:32:00,
2013-01-02 02:43:00,14.0,5.0,-100.00,North,9,2.0,4.0,67,0.00,,,-99.99,0.000000,,2013-01-02 09:43:00,
2013-01-02 02:52:00,14.0,5.0,-100.00,North,9,2.0,4.0,67,0.00,,,-99.99,0.000000,,2013-01-02 09:52:00,
2013-01-02 03:00:00,14.0,2.0,-100.00,NNE,15,1.0,2.0,56,0.00,,,-99.99,0.000000,,2013-01-02 10:00:00,
2013-01-02 03:32:00,14.0,2.0,-100.00,NNE,15,1.0,2.0,56,0.00,,,-99.99,0.000000,,2013-01-02 10:32:00,
2013-01-02 03:42:00,14.0,2.0,-100.00,NNE,15,1.0,2.0,56,0.00,,,-99.99,0.000000,,2013-01-02 10:42:00,
2013-01-02 03:52:00,14.0,2.0,-100.00,NNE,15,1.0,2.0,56,0.00,,,-99.99,0.000000,,2013-01-02 10:52:00,
2013-01-02 04:00:00,14.0,-2.0,-100.00,North,9,2.0,3.0,49,0.00,,,-99.99,0.000000,,2013-01-02 11:00:00,
2013-01-02 04:32:00,14.0,-2.0,-100.00,North,9,2.0,3.0,49,0.00,,,-99.99,0.000000,,2013-01-02 11:32:00,
2013-01-02 04:42:00,14.0,-2.0,-100.00,North,9,2.0,3.0,49,0.00,,,-99.99,0.000000,,2013-01-02 11:42:00,
2013-01-02 04:52:00,14.0,-2.0,-100.00,North,9,2.0,3.0,49,0.00,,,-99.99,0.000000,,2013-01-02 11:52:00,
2013-01-02 05:00:00,7.0,2.0,-100.00,ENE,58,1.0,1.0,77,0.08,,,-99.99,0.000000,,2013-01-02 12:00:00,
2013-01-02 05:32:00,7.0,2.0,-100.00,ENE,58,1.0,1.0,77,0.08,,,-99.99,0.000000,,2013-01-02 12:32:00,
2013-01-02 05:42:00,7.0,2.0,-100.00,ENE,58,1.0,1.0,77,0.08,,,-99.99,0.000000,,2013-01-02 12:42:00,
2013-01-02 05:52:00,7.0,2.0,-100.00,ENE,58,1.0,1.0,77,0.08,,,-99.99,0.000000,,2013-01-02 12:52:00,
2013-01-02 06:00:00,9.0,-2.0,-100.00,NNE,30,1.0,2.0,61,0.04,,,-99.99,0.030000,,2013-01-02 13:00:00,
2013-01-02 06:32:00,9.0,-2.0,-100.00,NNE,30,1.0,2.0,61,0.04,,,-99.99,0.030000,,2013-01-02 13:32:00,
2013-01-02 06:42:00,9.0,-2.0,-100.00,NNE,30,1.0,2.0,61,0.04,,,-99.99,0.030000,,2013-01-02 13:42:00,
2013-01-02 06:52:00,9.0,-2.0,-100.00,NNE,30,1.0,2.0,61,0.04,,,-99.99,0.030000,,2013-01-02 13:52:00,
2013-01-02 07:00:00,10.0,-5.0,-100.00,North,7,1.0,1.0,49,0.00,,,-99.99,0.030000,,2013-01-02 14:00:00,
2013-01-02 07:33:00,10.0,-5.0,-100.00,North,7,1.0,1.0,49,0.00,,,-99.99,0.030000,,2013-01-02 14:33:00,
2013-01-02 07:42:00,10.0,-5.0,-100.00,North,7,1.0,1.0,49,0.00,,,-99.99,0.030000,,2013-01-02 14:42:00,
2013-01-02 07:53:00,10.0,-5.0,-100.00,North,7,1.0,1.0,49,0.00,,,-99.99,0.030000,,2013-01-02 14:53:00,
2013-01-02 08:00:00,13.0,-8.0,-100.00,NNW,347,2.0,3.0,36,0.00,,,-99.99,1.490000,,2013-01-02 15:00:00,
2013-01-02 08:33:00,13.0,-8.0,-100.00,NNW,347,2.0,3.0,36,0.00,,,-99.99,1.490000,,2013-01-02 15:33:00,
2013-01-02 08:42:00,13.0,-8.0,-100.00,NNW,347,2.0,3.0,36,0.00,,,-99.99,1.490000,,2013-01-02 15:42:00,
2013-01-02 08:52:00,13.0,-8.0,-100.00,NNW,347,2.0,3.0,36,0.00,,,-99.99,1.490000,,2013-01-02 15:52:00,
2013-01-02 09:00:00,15.0,-6.0,-100.00,NE,38,1.0,3.0,37,0.00,,,-99.99,14.360000,,2013-01-02 16:00:00,
2013-01-02 09:33:00,15.0,-6.0,-100.00,NE,38,1.0,3.0,37,0.00,,,-99.99,14.360000,,2013-01-02 16:33:00,
2013-01-02 09:42:00,15.0,-6.0,-100.00,NE,38,1.0,3.0,37,0.00,,,-99.99,14.360000,,2013-01-02 16:42:00,
2013-01-02 09:53:00,15.0,-6.0,-100.00,NE,38,1.0,3.0,37,0.00,,,-99.99,14.360000,,2013-01-02 16:53:00,
2013-01-02 10:33:00,24.0,-5.0,-100.00,East,94,1.0,2.0,26,0.00,,,-99.99,82.099998,,2013-01-02 17:33:00,
2013-01-02 11:33:00,27.0,-4.0,-100.00,SSE,148,1.0,2.0,24,0.00,,,-99.99,438.000000,,2013-01-02 18:33:00,
2013-01-02 12:00:00,28.0,-3.0,-100.00,SSE,156,2.0,3.0,25,0.00,,,-99.99,572.700012,,2013-01-02 19:00:00,
2013-01-02 12:32:00,28.0,-3.0,-100.00,SSE,156,2.0,3.0,25,0.00,,,-99.99,572.700012,,2013-01-02 19:32:00,
2013-01-02 12:42:00,28.0,-3.0,-100.00,SSE,156,2.0,3.0,25,0.00,,,-99.99,572.700012,,2013-01-02 19:42:00,
2013-01-02 12:52:00,28.0,-3.0,-100.00,SSE,156,2.0,3.0,25,0.00,,,-99.99,572.700012,,2013-01-02 19:52:00,
2013-01-02 13:00:00,27.0,-5.0,-100.00,ESE,103,2.0,4.0,24,0.00,,,-99.99,627.400024,,2013-01-02 20:00:00,
2013-01-02 13:33:00,27.0,-5.0,-100.00,ESE,103,2.0,4.0,24,0.00,,,-99.99,627.400024,,2013-01-02 20:33:00,
2013-01-02 13:42:00,27.0,-5.0,-100.00,ESE,103,2.0,4.0,24,0.00,,,-99.99,627.400024,,2013-01-02 20:42:00,
2013-01-02 13:53:00,27.0,-5.0,-100.00,ESE,103,2.0,4.0,24,0.00,,,-99.99,627.400024,,2013-01-02 20:53:00,
2013-01-02 14:00:00,27.0,-4.0,-100.00,SW,227,3.0,6.0,24,0.43,,,-99.99,621.900024,,2013-01-02 21:00:00,
2013-01-02 14:32:00,27.0,-4.0,-100.00,SW,227,3.0,6.0,24,0.43,,,-99.99,621.900024,,2013-01-02 21:32:00,
2013-01-02 14:42:00,27.0,-4.0,-100.00,SW,227,3.0,6.0,24,0.43,,,-99.99,621.900024,,2013-01-02 21:42:00,
2013-01-02 14:52:00,27.0,-4.0,-100.00,SW,227,3.0,6.0,24,0.43,,,-99.99,621.900024,,2013-01-02 21:52:00,
2013-01-02 15:32:00,26.0,-4.0,-100.00,SSW,192,2.0,4.0,26,0.00,,,-99.99,526.700012,,2013-01-02 22:32:00,
2013-01-02 16:00:00,20.0,-8.0,-100.00,West,259,3.0,5.0,27,0.03,,,-99.99,289.100006,,2013-01-02 23:00:00,
2013-01-02 16:33:00,20.0,-8.0,-100.00,West,259,3.0,5.0,27,0.03,,,-99.99,289.100006,,2013-01-02 23:33:00,
2013-01-02 16:42:00,20.0,-8.0,-100.00,West,259,3.0,5.0,27,0.03,,,-99.99,289.100006,,2013-01-02 23:42:00,
2013-01-02 16:52:00,20.0,-8.0,-100.00,West,259,3.0,5.0,27,0.03,,,-99.99,289.100006,,2013-01-02 23:52:00,
2013-01-02 17:00:00,16.0,-7.0,-100.00,North,10,3.0,5.0,33,0.09,,,-99.99,71.949997,,2013-01-03 00:00:00,
2013-01-02 17:37:00,16.0,-7.0,-100.00,North,10,3.0,5.0,33,0.09,,,-99.99,71.949997,,2013-01-03 00:37:00,
2013-01-02 17:52:00,16.0,-7.0,-100.00,North,10,3.0,5.0,33,0.09,,,-99.99,71.949997,,2013-01-03 00:52:00,
2013-01-02 18:00:00,14.0,-14.0,-100.00,SSW,194,1.0,3.0,26,0.08,,,-99.99,4.090000,,2013-01-03 01:00:00,
2013-01-02 18:32:00,14.0,-14.0,-100.00,SSW,194,1.0,3.0,26,0.08,,,-99.99,4.090000,,2013-01-03 01:32:00,
2013-01-02 18:42:00,14.0,-14.0,-100.00,SSW,194,1.0,3.0,26,0.08,,,-99.99,4.090000,,2013-01-03 01:42:00,
2013-01-02 18:52:00,14.0,-14.0,-100.00,SSW,194,1.0,3.0,26,0.08,,,-99.99,4.090000,,2013-01-03 01:52:00,
2013-01-02 19:00:00,12.0,-12.0,-100.00,North,351,2.0,4.0,31,0.08,,,-99.99,0.000000,,2013-01-03 02:00:00,
2013-01-02 19:33:00,12.0,-12.0,-100.00,North,351,2.0,4.0,31,0.08,,,-99.99,0.000000,,2013-01-03 02:33:00,
2013-01-02 19:42:00,12.0,-12.0,-100.00,North,351,2.0,4.0,31,0.08,,,-99.99,0.000000,,2013-01-03 02:42:00,
2013-01-02 19:52:00,12.0,-12.0,-100.00,North,351,2.0,4.0,31,0.08,,,-99.99,0.000000,,2013-01-03 02:52:00,
2013-01-02 20:00:00,11.0,-13.0,-100.00,NNW,348,1.0,3.0,31,0.04,,,-99.99,0.000000,,2013-01-03 03:00:00,
2013-01-02 20:44:00,11.0,-13.0,-100.00,NNW,348,1.0,3.0,31,0.04,,,-99.99,0.000000,,2013-01-03 03:44:00,
2013-01-02 20:52:00,11.0,-13.0,-100.00,NNW,348,1.0,3.0,31,0.04,,,-99.99,0.000000,,2013-01-03 03:52:00,
2013-01-02 21:00:00,11.0,-13.0,-100.00,NE,45,1.0,1.0,32,0.02,,,-99.99,0.010000,,2013-01-03 04:00:00,
2013-01-02 21:32:00,11.0,-13.0,-100.00,NE,45,1.0,1.0,32,0.02,,,-99.99,0.010000,,2013-01-03 04:32:00,
2013-01-02 21:42:00,11.0,-13.0,-100.00,NE,45,1.0,1.0,32,0.02,,,-99.99,0.010000,,2013-01-03 04:42:00,
2013-01-02 21:52:00,11.0,-13.0,-100.00,NE,45,1.0,1.0,32,0.02,,,-99.99,0.010000,,2013-01-03 04:52:00,
2013-01-02 22:00:00,12.0,-14.0,-100.00,North,359,2.0,4.0,29,0.00,,,-99.99,0.010000,,2013-01-03 05:00:00,
2013-01-02 22:33:00,12.0,-14.0,-100.00,North,359,2.0,4.0,29,0.00,,,-99.99,0.010000,,2013-01-03 05:33:00,
2013-01-02 22:42:00,12.0,-14.0,-100.00,North,359,2.0,4.0,29,0.00,,,-99.99,0.010000,,2013-01-03 05:42:00,
2013-01-02 22:52:00,12.0,-14.0,-100.00,North,359,2.0,4.0,29,0.00,,,-99.99,0.010000,,2013-01-03 05:52:00,
2013-01-02 23:00:00,12.0,-13.0,-100.00,NE,54,1.0,3.0,30,0.00,,,-99.99,0.010000,,2013-01-03 06:00:00,
2013-01-02 23:32:00,12.0,-13.0,-100.00,NE,54,1.0,3.0,30,0.00,,,-99.99,0.010000,,2013-01-03 06:32:00,
2013-01-02 23:42:00,12.0,-13.0,-100.00,NE,54,1.0,3.0,30,0.00,,,-99.99,0.010000,,2013-01-03 06:42:00,
2013-01-02 23:52:00,12.0,-13.0,-100.00,NE,54,1.0,3.0,30,0.00,,,-99.99,0.010000,,2013-01-03 06:52:00,